Regional Weather Roundup
Issued by NWS

Home | Current Version | Previous Version | Graphics & Text | Print | Product List | Glossary On
Versions: 1 2 3 4 5 6 7 8 9 10 11 12 13 14 15 16 17 18 19 20 21 22 23 24 25 26 27 28 29 30 31 32 33 34 35 36 37 38 39 40 41 42 43 44 45 46 47 48 49 50
000
ASUS43 KBIS 211831
RWRND
NORTH DAKOTA REGIONAL WEATHER ROUNDUP
NATIONAL WEATHER SERVICE EASTERN NORTH DAKOTA/GRAND FORKS ND
100 PM CDT MON MAY 21 2018

  NOTE: "FAIR" INDICATES FEW OR NO CLOUDS BELOW 12,000 FEET WITH NO
  SIGNIFICANT WEATHER AND/OR OBSTRUCTIONS TO VISIBILITY.

NDZ001>003-009>011-017-211900-
...NORTHWEST NORTH DAKOTA...

CITY           SKY/WX    TMP DP  RH WIND       PRES   REMARKS
WILLISTON      FAIR      74  42  31 S12       29.92F
6HR MIN TEMP:  51; 6HR MAX TEMP:  74;

MINOT          FAIR      76  32  20 S15G22    29.95F
MINOT AFB      FAIR      75  33  22 S15G21    29.93F
6HR MIN TEMP:  39; 6HR MAX TEMP:  75;

$$

NDZ018>021-031>035-040>046-211900-
...SOUTHWEST NORTH DAKOTA...

CITY           SKY/WX    TMP DP  RH WIND       PRES   REMARKS
BISMARCK       CLOUDY    70  43  37 SE12      29.99S
DICKINSON      FAIR      70  37  29 S14       29.95F
GARRISON         N/A     71  35  26 S14G21    29.96F
HETTINGER      FAIR      68  42  38 S10G23    29.98F
$$

NDZ004>008-012>016-024-026-027-054-211900-
...NORTHEAST NORTH DAKOTA...

CITY           SKY/WX    TMP DP  RH WIND       PRES   REMARKS
GRAND FORKS    FAIR      71  33  24 SE7       30.01F
GRAND FORKS AF FAIR      72  33  24 SE7       30.02F
DEVILS LAKE    FAIR      69  33  26 SE12      30.02F
$$

NDZ022-023-025-028>030-036>039-047>053-211900-
...SOUTHEAST NORTH DAKOTA...

CITY           SKY/WX    TMP DP  RH WIND       PRES   REMARKS
JAMESTOWN      FAIR      71  50  47 SE13G20   30.00S
FARGO          FAIR      72  40  31 SE13G24   30.00F
WAHPETON       CLOUDY    68  48  49 SE9       30.02F
$$



USA.gov is the U.S. government's official web portal to all federal, state and local government web resources and services.